www.pogodaiklimat.ru

Погода и климат >> Архив погоды >> Казахстан >> Алматы


АРХИВ ПОГОДЫ в Алматы

Время (UTC), дата Ветер
(напр.,м/с)
 
Видим.   Явления Облачность Т
(С)
Тd
(С)
f
(%)
Тe
(С)
Тes
(С)
Комфортность P
(гПа)
Po
(гПа)
Тmin
(С)
Tmax
(С)
R
(мм)
R24
(мм)
S
(см)
12 12.01 С 1 10 км {ливн. осадки} 8/4 600 м
[Cb cap Ac trans Ci fib]
-1.6 -3.6 86 -4 -4 по сезону 1034.8 931.4
15 12.01 штиль 0 н/о 4/0
[Ac trans Ci fib]
-3.7 -5.5 87 -5 -5 по сезону 1036.8 932.4 -0.3
18 12.01 штиль 0 н/о 4/0
[Ci fib]
-5.4 -6.8 90 -6 -6 по сезону 1037.0 932.0 -0.3 0.3
21 12.01 штиль 0 н/о ясно -6.3 -8.2 86 -7 -7 по сезону 1036.4 931.0
00 13.01 штиль 0
{3}
н/о ясно -6.9 -9.3 83 -8 -8 по сезону 1035.1 929.6
03 13.01 штиль 0 10 км ясно -7.6 -9.3 88 -8 -8 прохладно 1035.8 930.0 12
06 13.01 штиль 0 10 км ясно -2.7 -8.1 66 -3 +2 по сезону 1033.4 929.6 -7.6
09 13.01 штиль 0 10 км ясно -0.3 -7.3 59 -1 +2 по сезону 1030.6 928.0
12 13.01 штиль 0 10 км 8/0
[Ci fib]
-4.5 -6.1 89 -6 -6 прохладно 1031.4 927.2
15 13.01 штиль 0 н/о 3/0
[Ci fib]
-6.2 -7.7 89 -7 -7 по сезону 1031.5 926.7 0.0
18 13.01 штиль 0 н/о ясно -8.6 -9.7 92 -9 -9 прохладно 1031.1 925.4 0.0
21 13.01 штиль 0 н/о ясно -9.6 -10.8 91 -10 -10 прохладно 1030.1 924.1
00 14.01 штиль 0
{2}
н/о 10/0
[Ci fib]
-10.4 -12.0 88 -11 -11 прохладно 1028.5 922.3
03 14.01 штиль 0 20 км 10/0
[Ci fib]
-8.5 -10.4 86 -9 -9 прохладно 1025.8 920.7 11
06 14.01 штиль 0 20 км 10/0
[Ci fib]
0.0 -5.4 67 -1 +4 по сезону 1020.7 919.3 -10.4
09 14.01 С 1 20 км 10/0
[Ci ing]
+2.7 -5.3 56 +2 +4 тепло 1018.4 918.1
12 14.01 штиль 0 10 км 9/0
[Ci sp]
-0.9 -5.9 69 -2 -2 по сезону 1018.9 917.3
15 14.01 штиль 0 н/о 8/0
[Ci sp]
-3.7 -5.4 88 -5 -5 по сезону 1019.2 916.6 +3.0
18 14.01 штиль 0 н/о 8/0
[Ci sp]
-3.5 -5.9 83 -5 -5 по сезону 1016.9 914.6 +3.0
21 14.01 штиль 0 н/о 10/0
[Ci sp]
-3.8 -6.6 81 -5 -5 по сезону 1016.5 914.1
00 15.01 штиль 0
{2}
н/о 10/0
[Ci sp]
-3.7 -7.9 73 -5 -5 по сезону 1015.7 913.4
03 15.01 штиль 0
{2}
н/о 10/0
[Ci sp]
-3.7 -7.9 73 -5 -4 по сезону 1015.7 913.4
06 15.01 штиль 0 20 км 10/8 1000 м
[Cb cap Ac As]
-1.9 -10.2 53 -2 -2 по сезону 1014.9 913.3 11
09 15.01 ЮЗ 1 20 км 10/4 1000 м
[Cb cap Ac As]
+5.5 -7.3 39 +5 +6 тепло 1010.7 912.1
12 15.01 штиль 0 10 км 10/8 600 м
[Cb cap Ac trans]
+5.3 -7.7 39 +5 +5 тепло 1011.4 912.6
15 15.01 З 1 н/о 10/8 600 м
[Cb cap Ac trans]
+5.8 -6.8 40 +5 +5 тепло 1014.5 915.6 +6.6
18 15.01 штиль 0 н/о 10/10 600 м
[Cb cap]
+3.9 -4.7 53 +4 +4 тепло 1017.4 917.6 +6.6
21 15.01 штиль 0 н/о в посл. час ливневой дождь 10/10 600 м
[Cb cap]
+5.3 -0.2 68 +5 +5 тепло 1018.0 918.7
00 16.01 штиль 0
{3}
н/о слаб. ливневой дождь 10/10 600 м
[Cb cap]
+2.4 +1.4 93 +1 +1 тепло 1021.1 920.5
03 16.01 ЮВ 2 10 км слаб. ливневой дождь 10/10 600 м
[Cb cap]
+3.9 +0.4 78 +1 +1 тепло 1022.2 922.0 8
06 16.01 штиль 0 10 км в посл. час ливневой дождь 10/8 600 м
[Cb cap Ac As]
+4.0 +1.0 81 +3 +3 тепло 1023.5 923.2 +2.1 5
09 16.01 СВ 2 10 км 10/8 600 м
[Cb cap Ac trans]
+4.5 +0.8 77 +2 +2 тепло 1023.3 923.2
12 16.01 В 2 10 км 10/10 600 м
[Cb cap]
+3.9 -0.8 71 +1 +1 по сезону 1024.7 924.3
15 16.01 штиль 0 н/о 10/8 600 м
[Cb cap Ac As]
+3.1 +0.8 85 +2 +2 тепло 1026.0 925.2 +5.4
18 16.01 штиль 0 н/о 10/6 600 м
[Cb cap Ac trans]
+2.5 -0.7 79 +2 +2 тепло 1026.1 925.0 +5.4 0.6
21 16.01 штиль 0 н/о 8/4 600 м
[Cb cap Ac trans]
-0.1 -0.9 94 -1 -1 тепло 1026.8 924.7
00 17.01 штиль 0
{3}
н/о 6/3 600 м
[Cb cap Ac trans]
-1.1 -2.6 90 -2 -2 по сезону 1026.9 924.5
03 17.01 штиль 0 20 км 3/1 600 м
[Cb cap Ac trans]
-1.1 -2.6 90 -2 -2 по сезону 1027.0 924.6 6
06 17.01 С 1 10 км 3/3 300 м
[Frnb]
+0.6 -1.0 89 -1 +2 по сезону 1025.8 924.1 -1.6
09 17.01 С 1 4000 м дымка ясно +1.2 -1.2 84 -1 +2 по сезону 1024.5 923.2
12 17.01 ЮЗ 1 4000 м дымка 10/0
[Ac As]
-0.7 -3.0 84 -3 -3 по сезону 1025.6 923.4
15 17.01 штиль 0 н/о дымка 10/0
[Ac As]
-0.9 -1.7 94 -2 -2 по сезону 1025.1 922.9 +1.7
18 17.01 штиль 0 н/о дымка 10/0
[Ac As]
-1.5 -2.0 96 -3 -3 по сезону 1024.3 922.0 +1.7
21 17.01 штиль 0 н/о туман ?/? -2.8 -3.2 97 -4 -4 по сезону 1024.2 921.4
00 18.01 штиль 0
{2}
н/о дымка {туман} 6/6 300 м
[St]
-4.3 -4.9 96 -6 -6 по сезону 1023.5 920.2
03 18.01 штиль 0 20 км {туман} ясно -5.1 -6.1 93 -6 -6 по сезону 1022.7 919.2 6
06 18.01 штиль 0 20 км ясно +1.5 -2.7 74 +1 +6 по сезону 1018.5 917.8 -5.6
09 18.01 штиль 0 10 км ясно +3.5 -4.8 55 +3 +7 тепло 1014.1 914.5
12 18.01 штиль 0 10 км 3/0
[Ci fib]
+0.9 -3.4 73 0 0 по сезону 1014.3 913.8
15 18.01 штиль 0 н/о ясно -1.1 -3.8 82 -2 -2 по сезону 1015.7 914.3 +5.0
18 18.01 штиль 0 н/о ясно -1.5 -5.6 74 -2 -2 по сезону 1017.5 915.8 +5.0
21 18.01 штиль 0 н/о ясно -2.3 -5.8 77 -3 -3 по сезону 1020.1 917.9
00 19.01 штиль 0
{3}
н/о 4/0
[Ci fib]
+3.3 -11.5 33 +3 +3 тепло 1019.2 918.9
03 19.01 ЮВ 1 20 км 10/0
[Ac und Ci sp]
+1.2 -7.3 53 0 0 тепло 1021.7 920.5 6
06 19.01 штиль 0 10 км 10/3 600 м
[Cb cap Ac As]
+7.3 -2.6 49 +7 +8 тепло 1020.3 921.4 -2.7
09 19.01 штиль 0 10 км 10/4 600 м
[Cb cap Ac As]
+5.9 -2.6 54 +6 +6 тепло 1019.5 920.2

 

Местоположение метеостанции Алматы (Алматинская область, Казахстан): широта 43.23 долгота 76.93 высота над уровнем моря 851 м.

В архиве по умолчанию представлена погода в Алматы за последнюю неделю. Архивные данные за месяц целиком и за предыдущие месяцы, начиная с января 2011 года, Вы можете получить, выбрав интересующий диапазон дат из раскрывающегося списка и нажав кнопку "Ввод!".


*Определитесь, кто Вы:
робот инопланетянин человек

Внимание! Время в таблицах - всемирное. Для получения местного времени необходимо прибавить поправку, которая равна 6 ч.

Смотрите также архив погоды в соседних городах и на ближайших метеорологических станциях:

Погода в Алматы АМС (Алматинская область, Казахстан) (4 км)
Погода в Каменском плато (Алматинская область, Казахстан) (6 км)
Погода в Медеу (Алматинская область, Казахстан) (12 км)
Погода в Карасайском (Алматинская область, Казахстан) (15 км)
Погода в Шымбулаке (Алматинская область, Казахстан) (16 км)
Погода на Большом Алматинском озере (Алматинская область, Казахстан) (18 км)
Погода в Альмереке (Алматинская область, Казахстан) (21 км)
Погода в Коныролене (Алматинская область, Казахстан) (24 км)
Погода в Рыскулово (Алматинская область, Казахстан) (30 км)
Погода в Илийском (Алматинская область, Казахстан) (33 км)

Пояснения к столбцам:

Ветер - указаны скорость ветра в м/с - средняя за 10 мин, порывы в срок и между сроками (в фигурных скобках) и направление, откуда дует ветер: С - северный, СВ - северо-восточный, В - восточный, ЮВ - юго-восточный, Ю - южный, ЮЗ - юго-западный, З - западный, СЗ - северо-западный.
Видимость - горизонтальная дальность видимости в метрах или километрах. При видимости от 1 до 10 км при отсутствии осадков обычно наблюдается дымка, при ухудшении видимости до 1 км и менее - туман. В сухую погоду видимость может ухудшаться дымом, пылью или мглою.
Явления - указаны атмосферные явления, наблюдавшиеся в срок или в последний час перед сроком; фигурными скобками обозначены явления, наблюдавшиеся между сроками (за 1-3 часа до срока); квадратными скобками обозначены град или гололедные отложения с указанием их диаметра в мм.
Облачность - указаны через наклонную черту общая и нижняя облачность в баллах и высота нижней границы облаков в метрах; квадратными скобками обозначены формы облаков: Ci - перистые, Cs - перисто-слоистые, Cc - перисто-кучевые, Ac - высококучевые, As - высокослоистые, Sc - слоисто-кучевые, Ns - слоисто-дождевые, Cu - кучевые, Cb - кучево-дождевые. Подробнее классификацию облаков см. в Атласе облаков (PDF).
T - Температура воздуха - температура, измеренная на высоте 2 м над землей.
Td - Температура точки росы - температура, при понижении до которой содержащийся в воздухе водяной пар достигнет насыщения.
f - Относительная влажность воздуха - влажноcть воздуха, измеренная на высоте 2 м над землей.
Te - Эффективная температура - температура, которую ощущает одетый по сезону человек в тени. Характеристика душности погоды. При расчете учитывается влияние влажности воздуха и скорости ветра на теплоощущения человека.
Tes - Эффективная температура на солнце - температура, которую ощущает человек, с поправкой на солнечный нагрев. Характеристика знойности погоды. Зависит от высоты солнца над горизонтом, облачности и скорости ветра. Ночью, в пасмурную погоду, а также при ветре 12 м/с и более поправка равна нулю.
P - Атмосферное давление - приведенное к уровню моря атмосферное давление.
Po - Атмосферное давление - измеренное на уровне метеостанции атмосферное давление.
Tmin - Минимальная температура - минимум температуры воздуха на высоте 2 м над землей.
Tmax - Максимальная температура - максимум температуры воздуха на высоте 2 м над землей.
R - Количество осадков - Количество выпавших осадков за период времени, мм. При наведении курсора мыши на число - период времени, за который выпало указанное количество осадков.
R24 - Количество осадков - Количество выпавших осадков за 24 часа, мм.
S - Снежный покров - Высота снежного покрова, см. При наведении курсора мыши на число - состояние снежного покрова и степень покрытия местности в баллах.